Location: Saint-Palais-sur-Mer
(45.6429°N, 1.0859°W)
Time: 14:08:01
(UTC+01:00)

BlueWalker 3 - Pass Details

Date: 23 January 2026
Orbit: 451 x 461 km, 53.2° (Epoch: 13 February)

Event Time Altitude Azimuth Distance (km) Brightness Sun altitude
Rises 18:44:51 0° 217° (SW) 2,446 6.5 -8.4°
Reaches altitude 10° 18:47:03 10° 209° (SSW) 1,576 5.2 -8.8°
Maximum altitude 18:50:23 39° 139° (SE) 689 2.4 -9.3°
Enters shadow 18:53:06 14° 73° (ENE) 1,350 3.4 -9.8°
